Norfolk, NE

7:33 PM CDT on June 25, 2017 (GMT -0500)
Stefan Memorial

Weather History for KOFK - June, 2013

Change the Weather History Date:

Wednesday, June 26, 2013

  Actual Average Record
Temperature  
Mean Temperature 80 °F 73 °F  
Max Temperature 91 °F 85 °F 102 °F (1913)
Min Temperature 68 °F 62 °F 42 °F (1926)
Degree Days  
Heating Degree Days 0 0  
Month to date heating degree days 42 28  
Since 1 June heating degree days 42 28  
Since 1 July heating degree days 6809 6641  
Cooling Degree Days 15 9  
Month to date cooling degree days 155 150  
Year to date cooling degree days 219 211  
Since 1 June cooling degree days 155 150  
Growing Degree Days 30 (Base 50)    
Moisture  
Dew Point 63 °F    
Average Humidity 66    
Maximum Humidity 100    
Minimum Humidity 32    
Precipitation  
Precipitation 0.00 in 0.14 in 2.55 in (1985)
Month to date precipitation 1.43 3.72  
Year to date precipitation 12.85 13.42  
Snow  
Snow 0.00 in 0.00 in - ()
Month to date snowfall 0.0 0.0  
Since 1 July snowfall 27.3 30.5  
Snow Depth 0.00 in    
Sea Level Pressure  
Sea Level Pressure 29.81 in    
Wind  
Wind Speed 6 mph (WNW)    
Max Wind Speed 16 mph    
Max Gust Speed 20 mph    
Visibility 9 miles    
Events      
T = Trace of Precipitation, MM = Missing Value Source: NWS Daily Summary

Daily Weather History Graph

Daily Weather History Graph

Search for Another Location

Airport or City:

Trip Planner

Search our weather history database for the weather conditions in past years. The results will help you decide how hot, cold, wet, or windy it might be!

Date:

Astronomy

Jun. 26, 2013 Rise Set
Actual Time 5:55 AM CDT 9:09 PM CDT
Civil Twilight 5:21 AM CDT 9:43 PM CDT
Nautical Twilight 4:37 AM CDT 10:28 PM CDT
Astronomical Twilight 3:43 AM CDT 11:21 PM CDT
Moon 11:28 PM CDT 9:53 AM CDT
Length of Visible Light 16h 22m
Length of Day
15h 13m
Waning Gibbous, 85% of the Moon is Illuminated
Jun 26
Waning Gibbous
Jun 29
Last Quarter
Jul 8
New
Jul 15
First Quarter
Jul 22
Full

Hourly Weather History & Observations

Time (CDT) Temp. Heat Index Dew Point Humidity Pressure Visibility Wind Dir Wind Speed Gust Speed Precip Events Conditions
12:56 AM 71.1 °F - 70.0 °F 96% 29.68 in 6.0 mi West 3.5 mph - N/A   Clear
1:56 AM 71.1 °F - 70.0 °F 96% 29.69 in 5.0 mi West 4.6 mph - N/A   Clear
2:56 AM 72.0 °F - 71.1 °F 97% 29.70 in 4.0 mi WNW 5.8 mph - N/A   Clear
3:56 AM 71.1 °F - 68.0 °F 90% 29.72 in 9.0 mi WNW 8.1 mph - N/A   Clear
4:56 AM 71.1 °F - 66.0 °F 84% 29.74 in 10.0 mi WNW 8.1 mph - N/A   Clear
5:56 AM 68.0 °F - 64.9 °F 90% 29.77 in 10.0 mi WNW 8.1 mph - N/A   Scattered Clouds
6:56 AM 70.0 °F - 64.9 °F 84% 29.79 in 10.0 mi WNW 8.1 mph - N/A   Clear
7:56 AM 73.0 °F - 66.0 °F 79% 29.81 in 10.0 mi WNW 6.9 mph - N/A   Clear
8:56 AM 77.0 °F - 64.9 °F 66% 29.81 in 10.0 mi NNW 10.4 mph - N/A   Clear
9:56 AM 80.1 °F 81.7 °F 64.0 °F 58% 29.83 in 10.0 mi NW 9.2 mph - N/A   Clear
10:56 AM 82.9 °F 83.3 °F 61.0 °F 47% 29.85 in 10.0 mi NNW 11.5 mph - N/A   Clear
11:56 AM 84.9 °F 84.4 °F 59.0 °F 41% 29.86 in 10.0 mi NNW 9.2 mph - N/A   Clear
12:56 PM 86.0 °F 84.9 °F 57.0 °F 37% 29.86 in 10.0 mi NNW 5.8 mph - N/A   Clear
1:56 PM 88.0 °F 87.1 °F 59.0 °F 37% 29.86 in 10.0 mi NNW 5.8 mph - N/A   Clear
2:56 PM 89.1 °F 88.0 °F 57.9 °F 35% 29.85 in 10.0 mi NNW 5.8 mph - N/A   Clear
3:56 PM 91.0 °F 89.7 °F 57.0 °F 32% 29.84 in 10.0 mi North 3.5 mph - N/A   Clear
4:56 PM 90.0 °F 89.7 °F 60.1 °F 37% 29.84 in 10.0 mi NNW 6.9 mph - N/A   Clear
5:56 PM 91.0 °F 90.9 °F 61.0 °F 36% 29.83 in 10.0 mi Variable 5.8 mph - N/A   Clear
6:56 PM 89.1 °F 88.8 °F 60.1 °F 38% 29.83 in 10.0 mi South 4.6 mph - N/A   Clear
7:56 PM 84.9 °F 86.6 °F 64.9 °F 51% 29.83 in 10.0 mi SSE 4.6 mph - N/A   Clear
8:56 PM 78.1 °F - 66.0 °F 66% 29.84 in 10.0 mi SE 4.6 mph - N/A   Clear
9:56 PM 75.9 °F - 64.0 °F 67% 29.85 in 10.0 mi SSE 8.1 mph - N/A   Clear
10:56 PM 75.0 °F - 63.0 °F 66% 29.86 in 10.0 mi South 5.8 mph - N/A   Clear
11:56 PM 73.0 °F - 63.0 °F 71% 29.86 in 10.0 mi Calm Calm - N/A   Clear